Theta_e
322 319 320 321 322 323 327 327 327 326 326 333 331 338 342 347 350 348 349 348 344 339 337 337 339 346 342 338 344 344 344 344 346 342 341 340 341 342 342 342 341 339 338 338
321 320 319 320 321 324 325 325 324 324 328 332 333 336 337 342 342 345 347 343 337 335 336 341 343 341 336 337 338 346 344 342 343 346 346 346 345 346 345 343 341 340 340 340
322 323 321 323 323 324 323 324 323 324 324 330 332 329 338 339 341 340 346 337 335 337 337 340 340 335 335 335 341 342 341 346 346 348 346 344 347 343 343 341 340 339 339 339
323 323 324 324 325 322 324 322 323 323 323 322 324 326 322 332 336 339 340 338 334 336 338 340 341 339 336 340 334 334 338 344 347 347 343 347 347 343 338 335 335 335 335 336
324 326 326 326 326 323 325 323 322 322 322 324 323 321 321 331 334 334 338 339 337 335 336 336 337 337 337 337 336 335 336 345 343 347 347 343 338 335 335 336 337 336 334 336
322 324 324 324 325 324 325 322 317 317 318 321 322 322 324 331 331 330 334 339 339 339 337 339 341 340 336 337 338 340 342 345 345 346 340 336 334 337 337 337 336 337 337 337
323 323 323 325 325 324 320 317 319 320 319 321 321 327 326 329 332 333 332 336 338 336 336 340 344 336 342 341 339 339 345 345 344 338 336 334 335 336 337 337 337 337 337 336
323 322 324 324 323 324 319 319 319 322 320 321 321 325 326 334 342 339 335 335 336 336 336 346 343 341 342 341 339 346 344 346 341 336 334 336 332 332 336 337 338 338 338 337
323 325 324 325 323 324 322 321 317 317 316 321 320 324 332 339 341 345 344 340 336 342 346 347 346 345 344 345 345 344 343 343 335 337 333 334 332 332 333 334 334 336 337 339
321 324 322 324 324 323 323 319 321 316 322 324 321 329 328 340 341 345 343 341 335 332 335 343 348 346 345 342 342 346 342 334 335 336 334 334 333 332 333 333 333 333 337 337
318 320 321 323 324 323 320 320 316 315 317 321 322 324 324 334 340 344 339 337 332 332 332 344 348 346 344 346 345 342 333 333 335 337 334 334 334 334 335 334 333 333 335 338
319 317 321 321 321 322 321 320 317 320 321 317 319 321 330 329 335 338 341 335 334 332 331 332 345 341 345 345 342 334 336 336 337 338 334 334 334 337 337 335 334 333 334 334
319 319 321 319 318 321 325 319 316 314 315 321 323 323 333 332 336 334 337 338 334 334 336 343 345 341 343 343 342 335 339 338 337 336 335 336 336 337 337 335 334 333 333 333
320 315 319 318 319 322 327 324 319 318 320 319 319 322 331 333 333 336 339 335 337 335 339 343 343 334 343 342 342 341 340 340 337 337 336 335 336 336 336 335 334 334 333 332
319 323 320 321 320 322 326 328 323 325 323 328 326 321 321 332 332 334 340 343 339 339 339 343 343 338 344 344 343 343 342 340 340 338 336 334 335 334 334 333 334 334 333 333
322 323 328 328 329 331 332 331 328 327 323 323 327 326 323 326 331 333 339 344 345 342 341 343 343 344 344 344 344 343 343 340 342 339 338 336 336 335 333 331 334 334 333 333
329 324 323 327 329 330 327 327 330 332 329 330 333 329 332 333 332 333 337 342 344 345 342 342 343 344 345 344 343 343 342 339 342 342 339 337 336 335 334 332 334 334 334 332
329 327 323 326 326 331 324 325 330 331 334 332 332 331 332 333 333 334 334 338 342 340 341 342 341 341 343 344 344 343 343 340 340 343 342 339 337 336 335 332 333 333 333 332
324 326 329 329 327 327 331 334 339 336 332 337 332 333 334 336 336 337 335 335 333 337 339 339 338 341 344 345 344 344 344 343 343 342 341 341 339 338 336 334 333 334 333 331
322 322 328 329 333 333 327 334 337 336 333 338 337 332 335 337 338 334 338 335 337 337 338 337 335 341 340 342 343 341 340 339 339 340 341 341 339 339 336 335 334 334 334 331
319 322 322 329 332 331 331 335 336 334 332 337 335 336 335 332 329 329 335 335 335 337 338 336 338 339 341 340 339 335 330 329 328 329 334 341 340 339 337 336 335 334 333 330
319 321 323 324 329 329 332 336 336 333 339 335 336 334 330 328 328 331 334 335 335 337 336 337 336 336 336 334 330 328 328 328 331 332 336 339 339 339 337 336 335 333 331 330
330 323 322 323 324 328 332 333 334 338 338 336 335 335 336 331 331 334 335 335 335 336 334 332 333 332 331 328 328 329 331 331 331 331 335 334 337 337 336 333 334 330 330 328
326 327 328 328 329 331 332 333 332 337 337 336 334 337 337 336 335 337 334 333 336 332 334 329 326 326 325 326 328 330 330 330 331 330 332 331 332 332 332 330 328 326 326 325
323 325 325 328 330 332 331 334 334 338 338 335 333 333 335 335 334 329 328 329 329 329 332 325 324 325 325 326 326 327 327 328 328 329 331 330 328 325 325 325 324 323 322 320
323 324 327 329 328 329 329 333 332 333 336 335 335 334 331 331 330 329 328 329 333 331 324 324 324 324 324 323 324 325 326 327 327 328 327 327 326 325 324 323 322 320 318 317
Wind_Speed
2 3 6 8 5 3 1 1 3 6 9 3 6 5 5 7 10 15 22 22 20 19 16 11 11 13 11 11 15 16 13 12 12 15 16 19 18 19 19 21 21 23 24 25
4 5 10 4 4 3 2 2 6 7 5 4 1 5 4 3 3 17 24 18 15 15 12 6 7 16 18 16 11 10 10 11 11 15 17 18 19 20 23 23 24 25 24 26
6 2 6 6 3 4 3 4 4 7 4 3 5 3 5 2 3 6 24 15 15 11 10 9 6 2 7 8 10 5 12 13 12 14 18 19 22 23 25 22 21 22 20 22
5 5 5 4 4 6 2 6 6 6 3 3 2 3 4 2 6 6 22 22 14 12 10 10 6 6 2 8 14 8 23 15 13 13 17 20 20 23 23 23 22 20 19 19
7 3 3 3 4 6 7 4 4 3 4 3 3 4 6 5 6 6 14 24 17 15 11 12 11 14 6 14 21 6 12 11 12 13 16 17 16 16 17 16 15 16 17 18
6 2 4 6 3 6 5 2 6 4 3 3 2 4 6 3 5 3 7 15 18 20 16 6 9 13 19 11 27 23 14 11 12 12 13 11 11 10 12 11 11 11 11 14
4 5 4 8 4 0 4 6 3 3 4 5 2 1 8 3 3 3 3 15 21 16 14 9 13 15 21 24 16 20 14 14 11 10 7 6 6 9 10 11 10 10 9 9
3 7 5 3 8 7 5 7 5 5 4 4 2 4 4 1 6 3 16 18 17 16 17 10 11 14 17 17 15 13 15 14 11 7 3 1 5 9 10 12 13 13 10 8
5 5 4 5 4 8 3 3 3 8 4 2 4 6 2 3 4 6 15 21 22 21 20 15 12 16 15 14 17 18 13 10 8 5 3 2 4 9 11 11 12 13 11 9
6 2 3 5 1 4 3 5 3 2 4 3 5 5 5 6 7 6 11 23 22 16 18 9 10 13 18 17 15 13 9 7 7 4 5 4 2 6 9 10 11 12 12 10
6 5 5 4 2 7 1 1 6 5 3 6 2 6 7 12 15 15 13 27 17 12 17 11 7 10 12 15 13 10 9 8 7 6 5 4 2 6 7 8 11 11 11 10
5 4 4 11 5 1 3 6 6 5 4 2 3 6 3 5 9 17 21 27 12 7 23 16 10 8 12 12 12 10 6 7 8 6 4 4 2 4 6 7 8 9 10 10
7 2 2 9 5 1 5 4 5 5 3 6 6 6 3 1 10 22 22 24 16 10 12 13 11 13 15 14 12 12 6 7 8 6 4 3 0 3 5 6 6 7 9 12
8 3 7 7 8 3 2 4 5 6 4 5 6 6 4 8 10 15 22 24 20 12 10 12 20 21 18 17 13 13 7 9 8 6 5 4 1 2 4 5 4 5 8 10
4 4 4 4 5 5 4 4 6 5 5 6 2 7 7 15 18 22 26 20 21 19 18 17 23 22 21 19 16 15 11 10 10 7 6 5 3 1 4 5 3 4 5 7
3 2 2 2 2 3 4 6 7 5 4 3 3 7 5 8 15 17 23 22 23 25 24 24 22 25 22 20 20 19 15 13 12 9 10 8 5 1 4 5 3 2 3 6
2 3 3 3 3 2 3 6 5 4 3 5 3 6 4 3 9 19 26 27 27 27 27 26 22 25 24 20 19 18 18 17 18 17 13 12 9 4 1 3 2 1 2 5
4 4 2 3 2 2 7 4 3 3 1 1 4 2 7 6 10 23 24 26 24 29 30 28 23 20 22 19 18 19 18 20 19 20 15 13 12 8 3 1 1 1 2 3
3 5 3 4 3 4 2 4 4 4 2 4 4 3 2 17 15 4 6 13 12 19 22 21 17 18 18 17 16 15 15 15 17 18 20 19 16 12 7 5 5 5 3 2
5 3 4 3 4 6 5 4 6 2 4 5 6 2 3 2 5 3 4 6 7 8 11 18 18 14 13 11 10 12 14 15 14 13 16 20 20 15 10 9 9 7 6 4
2 3 6 3 3 6 2 9 6 4 5 8 8 12 9 4 6 13 11 10 8 7 7 9 12 12 9 7 8 10 11 10 11 13 14 19 21 19 15 13 11 9 8 6
6 6 3 2 2 6 7 2 2 2 4 7 16 20 25 21 17 15 14 12 11 6 3 6 6 6 7 7 8 9 9 7 5 4 10 14 22 22 20 17 14 13 10 6
1 4 4 6 5 3 5 3 5 4 2 5 15 19 20 21 19 16 18 15 11 11 11 10 8 8 9 8 8 7 5 6 5 5 9 13 17 21 19 17 17 17 13 9
2 2 3 2 3 3 6 7 7 3 5 9 12 17 20 20 19 20 17 14 16 12 20 13 10 8 7 7 6 5 6 6 5 6 5 8 13 14 14 16 14 10 10 8
3 3 4 2 5 6 7 6 4 3 5 9 14 15 15 15 23 22 12 11 12 15 17 13 9 7 6 6 5 6 6 6 6 7 5 5 6 9 12 12 12 9 9 7
4 5 4 5 8 4 3 5 9 6 8 12 13 14 15 17 16 15 12 12 11 12 13 12 10 9 9 8 8 9 8 8 6 9 10 10 10 11 9 8 10 10 10 10
Wind_Direction
96 86 218 220 182 169 302 154 255 260 264 194 230 268 205 164 187 215 212 205 210 234 254 252 218 190 210 212 233 226 237 242 258 270 273 271 274 277 272 267 263 261 259 253
25 244 229 192 173 209 253 310 271 282 294 109 215 275 338 156 225 218 227 215 227 251 257 202 159 195 213 262 216 221 232 236 249 273 272 276 279 281 279 280 279 274 263 259
171 237 111 166 185 190 228 207 249 223 354 36 134 296 304 326 224 234 236 246 236 255 261 220 192 42 347 206 190 254 250 253 248 268 276 280 284 291 298 302 294 285 275 260
225 242 211 192 219 162 253 208 247 276 69 235 32 273 305 313 280 208 238 237 237 261 268 243 228 216 14 203 176 242 222 241 246 267 273 280 293 298 303 302 296 289 278 271
240 191 159 177 204 161 235 137 198 244 164 94 341 83 266 341 289 246 241 234 234 250 252 271 262 216 183 203 205 257 236 234 249 263 269 285 290 304 303 305 309 295 279 277
231 229 185 207 182 180 274 99 44 46 78 39 256 136 283 215 230 350 257 228 229 231 234 268 248 232 213 213 221 228 230 237 257 260 285 290 314 324 332 331 325 316 308 297
313 245 228 204 261 118 97 66 341 1 14 213 243 82 237 285 295 250 180 207 219 224 230 261 214 227 220 226 231 225 222 228 239 263 271 312 351 9 16 13 357 340 333 319
162 322 184 189 189 174 179 153 155 197 191 248 296 228 258 8 352 311 159 177 188 204 225 215 209 209 198 202 208 208 223 219 237 233 254 37 16 25 25 24 16 6 351 331
159 272 283 216 185 144 176 178 165 105 4 61 266 289 20 87 32 107 144 159 173 184 195 197 181 187 173 179 189 199 212 223 223 214 195 148 47 33 29 25 18 10 6 353
205 290 251 286 125 61 157 151 85 7 132 210 300 289 237 208 197 208 186 176 189 210 182 143 181 185 179 171 188 187 207 220 206 207 194 164 54 8 5 9 12 11 12 12
143 140 261 29 199 187 104 203 62 118 112 157 170 265 219 200 191 190 192 186 197 201 176 158 183 189 194 176 182 192 194 190 201 207 195 169 76 4 357 359 5 11 19 17
201 155 201 219 231 225 195 203 140 127 220 87 140 270 305 254 178 188 195 196 192 201 207 205 201 156 203 187 181 186 182 202 207 206 193 188 337 10 4 2 14 21 23 25
176 234 8 340 355 300 205 166 117 113 86 183 135 262 345 262 190 201 205 209 222 176 169 170 161 164 214 207 188 184 190 188 202 193 194 192 132 1 7 8 21 30 38 36
131 144 167 188 205 184 154 167 159 136 111 163 217 258 231 230 225 215 214 223 220 198 183 186 168 201 203 202 195 197 188 191 192 184 189 165 162 350 4 15 14 39 47 46
136 188 189 238 239 206 228 206 179 179 166 156 229 211 255 215 211 206 211 208 201 207 200 201 194 201 200 203 203 210 210 201 202 177 180 157 133 100 8 359 24 51 57 57
333 187 152 348 352 219 228 187 208 250 155 258 188 257 249 272 197 189 206 203 202 208 208 208 203 207 200 205 209 213 216 216 225 190 186 177 170 164 23 17 48 66 74 72
31 115 80 248 348 4 341 236 193 217 187 149 171 227 158 240 186 183 202 204 201 206 208 205 204 208 211 208 218 212 216 216 221 215 206 191 195 195 57 39 68 99 99 90
134 98 68 193 33 223 239 307 255 233 177 31 312 311 208 203 173 193 206 205 197 198 198 203 201 209 212 215 216 219 225 221 223 227 226 222 207 208 212 167 245 184 141 107
145 121 108 150 193 277 311 20 31 29 285 13 318 27 204 144 144 158 210 209 194 193 201 203 202 202 207 206 206 217 229 228 229 232 232 227 224 207 214 228 242 229 192 157
77 75 125 144 168 202 238 312 351 263 289 31 355 103 145 143 155 76 149 137 149 167 183 187 189 193 200 205 221 233 244 245 246 246 243 230 219 211 215 220 224 232 205 205
88 36 159 172 200 278 262 304 329 164 235 13 84 107 124 78 91 117 139 135 136 153 176 187 193 204 218 238 258 258 253 253 258 247 232 224 214 216 216 218 218 219 200 197
164 146 177 94 112 266 359 325 172 262 359 125 118 132 116 121 119 125 125 125 122 133 195 229 237 239 246 250 249 250 257 252 231 231 216 223 214 212 212 216 213 199 191 195
174 170 184 175 215 284 322 311 312 271 257 173 149 160 163 153 151 144 127 118 100 34 324 284 262 255 242 235 231 229 219 191 196 196 204 210 205 207 209 207 210 191 193 180
349 164 114 77 266 313 314 295 304 267 239 213 198 182 179 168 164 151 154 162 165 184 267 250 237 224 217 212 208 199 179 176 163 168 190 205 206 197 199 208 189 181 167 170
216 143 145 291 285 292 253 259 275 215 195 185 182 187 195 192 171 167 177 217 208 179 206 206 202 207 204 186 173 144 131 129 147 152 157 178 175 178 163 166 155 158 151 147
196 181 165 214 218 188 248 225 210 207 198 191 188 191 185 182 196 228 228 172 171 170 171 182 178 184 167 154 139 125 117 112 117 136 131 135 139 138 138 146 153 151 149 139